Temperature
29 25 25 25 26 27 27 27 27 28 29 28 27 26 25 25 25 24 24 23 23 22 23 22 22 22 22 21 21 21 20 20 20 19 19 19 19 19 19 19 19 19 19 19
25 25 27 28 28 29 28 28 27 28 29 28 26 26 26 25 25 25 24 23 23 23 22 22 22 22 22 21 21 21 21 20 20 20 20 19 19 19 19 19 19 19 19 19
26 26 29 29 29 29 28 27 28 28 28 28 27 25 25 25 26 25 25 24 24 23 23 22 22 22 22 21 21 21 21 21 20 20 19 19 19 19 19 19 19 19 19 19
26 27 29 29 28 29 27 29 29 29 26 25 26 24 24 24 25 25 25 24 24 23 23 23 22 22 22 22 22 21 21 21 20 20 20 19 19 19 19 19 19 19 19 19
26 28 28 28 29 29 29 29 29 29 27 25 25 24 23 24 24 24 24 24 24 24 23 23 23 23 22 22 22 22 21 21 21 20 20 20 20 20 19 19 19 19 19 19
26 28 28 29 29 29 29 28 26 24 23 24 25 24 24 23 24 25 24 25 24 24 24 23 23 23 22 22 22 22 21 21 21 20 20 20 20 20 19 19 19 19 19 19
26 27 28 29 28 28 27 24 23 24 22 23 24 24 23 25 25 25 25 25 25 25 24 23 23 22 22 22 22 21 21 21 21 20 20 20 20 20 19 19 19 19 19 19
24 24 27 28 28 27 26 24 23 23 23 23 24 24 25 26 26 26 26 25 25 24 24 23 23 23 22 22 22 22 21 21 21 21 20 20 20 20 19 19 19 19 19 19
23 24 27 28 29 28 27 25 23 22 23 23 23 24 25 25 25 25 24 24 24 24 24 24 23 23 23 22 22 22 22 21 21 21 20 20 20 20 20 19 19 19 19 19
24 24 25 27 28 27 27 25 21 21 22 23 23 24 23 24 23 24 23 23 23 24 24 24 23 23 23 23 22 22 22 22 21 21 20 20 20 20 20 19 19 19 19 19
23 23 24 25 26 26 26 25 22 19 20 21 22 22 24 23 23 23 22 23 23 23 24 23 23 23 23 22 22 22 21 21 21 21 21 20 20 20 20 19 19 19 19 19
22 20 21 23 25 26 26 25 22 22 21 20 20 22 24 23 23 23 22 23 23 23 23 23 23 23 22 22 22 21 21 21 21 21 21 20 20 20 20 19 19 19 19 18
22 20 21 22 22 24 25 25 23 21 19 19 20 22 23 22 22 22 22 22 22 22 23 23 23 22 22 22 21 21 21 21 21 21 21 20 20 20 20 19 19 19 19 18
22 19 20 21 21 23 24 25 24 21 20 20 21 22 22 22 21 21 21 21 21 22 22 22 22 22 22 21 21 21 21 20 20 20 20 20 20 20 19 19 19 19 19 18
21 21 22 21 22 24 24 25 25 23 22 21 21 21 21 21 21 21 21 21 21 21 21 21 21 21 21 21 21 21 20 20 20 20 20 20 19 19 19 19 19 19 18 18
19 21 21 22 23 23 24 24 24 24 23 22 22 21 21 21 21 21 21 20 20 20 20 20 20 20 21 21 21 20 20 20 20 20 20 19 19 19 19 18 18 18 18 18
18 19 19 19 21 22 22 23 23 22 22 22 21 20 20 19 19 20 20 20 19 19 20 20 20 20 20 20 20 20 20 20 20 20 19 19 19 19 19 18 18 18 18 18
18 18 16 18 20 21 21 22 23 22 21 20 20 19 19 19 19 20 20 20 20 20 20 20 20 20 20 20 20 20 20 20 19 19 19 19 18 18 18 18 18 18 17 17
18 18 17 16 18 20 21 22 22 21 20 20 19 19 19 19 19 19 20 20 20 20 20 19 19 19 19 19 19 19 19 19 19 18 18 18 18 18 18 17 17 17 17 17
17 16 17 17 19 19 20 21 22 21 18 19 19 18 18 19 17 17 19 19 19 19 19 19 19 19 19 19 19 19 19 18 18 18 18 18 18 18 17 17 17 17 17 17
17 17 17 17 18 18 19 21 22 19 18 19 19 19 19 18 18 19 19 19 19 19 19 19 19 18 18 18 18 18 18 18 17 17 17 17 17 17 17 17 17 17 16 16
16 16 16 16 17 18 19 20 19 18 19 19 19 19 19 19 18 18 18 18 18 18 18 18 18 18 17 17 17 17 17 17 17 17 17 17 16 16 16 16 16 16 16 15
15 16 15 15 16 17 19 19 19 19 19 19 19 19 19 18 18 18 18 18 18 18 18 17 17 17 17 17 17 16 16 16 16 16 16 16 16 16 16 16 15 15 15 15
16 16 15 15 16 17 18 19 19 19 19 19 19 18 18 18 18 17 17 17 17 17 17 17 17 16 16 16 16 16 16 16 16 16 16 16 15 15 15 15 15 15 15 14
15 15 14 14 15 16 17 18 18 19 19 18 18 18 18 17 17 17 17 17 17 17 16 16 16 16 16 16 16 16 16 15 15 15 15 15 15 15 15 14 14 14 14 14
14 14 14 14 15 15 16 17 18 18 18 18 18 18 17 17 17 17 17 17 16 16 16 16 16 15 15 15 15 15 15 15 15 14 14 15 14 14 14 14 14 14 14 14
Wind_Speed
3 2 4 9 8 8 6 4 4 5 5 4 4 6 12 14 13 14 14 15 15 15 12 12 13 14 13 11 11 10 9 8 6 4 4 3 3 3 3 4 7 8 8 7
5 6 11 9 7 5 3 3 4 5 3 3 4 5 9 11 16 17 18 17 15 12 11 12 12 12 12 12 12 11 10 9 8 5 4 3 3 3 3 3 4 7 8 7
8 9 7 5 6 4 3 3 5 4 4 2 3 2 3 5 6 9 12 14 15 17 17 16 16 15 15 14 14 13 11 10 9 7 4 3 2 1 2 2 2 4 7 7
7 8 6 5 6 3 5 6 4 2 2 2 3 2 6 6 5 9 12 13 15 16 15 15 15 15 16 16 14 12 11 10 9 8 7 7 6 5 5 4 3 3 5 6
6 5 4 6 7 4 7 6 3 2 1 2 1 3 5 3 6 9 12 14 14 15 16 16 16 15 14 14 13 12 11 10 9 9 9 8 6 5 4 3 4 4 4 5
8 6 5 6 6 4 3 4 7 6 5 1 4 4 5 6 11 11 12 13 14 14 15 15 14 12 11 12 12 11 11 10 9 9 9 9 8 7 6 5 5 4 3 3
7 7 5 2 3 6 5 5 5 6 5 5 4 2 7 8 9 11 13 13 13 14 14 13 13 12 11 12 12 12 12 11 10 10 9 9 9 8 8 7 6 5 4 4
2 7 5 2 5 4 3 7 6 4 5 6 4 2 5 3 3 5 8 10 10 11 11 12 13 14 13 13 13 14 14 12 11 11 10 9 8 7 6 7 6 7 6 6
4 6 6 5 4 6 2 3 8 7 2 1 4 4 5 4 4 5 7 6 7 10 12 12 12 13 14 14 14 15 14 12 12 12 11 9 8 7 7 7 6 6 5 6
6 4 7 5 3 2 5 5 5 4 3 2 5 3 4 3 2 3 5 6 5 7 9 11 11 12 12 13 13 12 13 13 12 11 11 10 8 8 7 6 7 6 6 5
5 4 7 4 1 4 1 2 4 4 5 6 3 6 5 6 5 5 4 5 6 7 9 9 9 9 9 9 10 11 11 11 11 11 10 9 8 8 7 7 7 6 6 6
4 5 4 7 7 5 4 4 5 3 3 4 4 7 4 3 3 5 5 4 5 6 7 7 7 8 8 8 8 8 9 10 11 11 10 10 9 8 8 8 7 6 6 6
5 6 1 8 8 6 2 1 2 3 3 3 3 6 3 2 3 4 5 4 4 4 4 5 5 6 6 7 7 7 7 8 8 9 9 9 9 9 10 9 8 7 6 6
5 5 6 7 7 4 4 5 2 3 2 3 6 6 5 1 3 4 5 4 4 4 4 3 3 4 4 5 6 6 5 6 7 8 9 9 10 10 9 9 8 8 7 6
5 3 3 5 5 2 4 6 5 2 5 6 6 5 6 5 5 5 5 4 5 4 3 2 2 2 2 3 3 4 4 5 6 7 8 9 9 8 7 7 7 7 7 8
4 3 1 3 4 4 5 6 4 3 1 1 2 3 4 2 2 4 4 5 5 4 3 3 2 3 3 3 3 4 4 5 6 8 8 7 6 7 8 7 7 7 7 6
1 3 2 3 5 5 4 4 1 2 2 2 3 4 1 3 2 3 3 5 5 5 4 4 3 3 3 3 3 4 5 4 5 6 7 6 7 7 7 8 7 7 7 6
4 3 3 1 3 3 6 3 3 3 3 2 2 2 3 3 1 1 3 5 4 3 3 2 1 1 1 2 2 3 4 4 5 5 6 6 6 6 5 5 6 6 6 6
6 6 4 3 2 5 6 3 0 2 3 3 2 2 3 2 4 4 2 1 3 4 3 3 2 2 1 1 2 2 3 3 3 3 4 5 5 6 5 4 4 4 4 5
4 5 5 3 3 5 6 6 2 5 1 4 1 2 0 2 1 3 3 1 1 1 2 2 2 2 1 1 1 3 2 3 3 3 3 3 4 5 5 5 4 3 4 4
4 3 3 3 4 5 4 5 2 2 5 4 0 1 2 2 4 4 1 0 1 1 1 2 2 2 1 1 2 2 2 2 3 2 3 2 2 4 4 3 3 3 3 3
2 1 2 3 3 5 5 3 3 4 3 1 0 1 2 1 1 2 2 1 1 1 2 2 2 1 1 1 2 2 2 2 2 3 3 3 2 2 3 3 3 3 4 4
2 4 4 5 6 5 2 2 3 3 1 1 1 0 3 2 1 2 2 2 1 1 2 2 2 2 2 1 1 2 2 1 2 3 3 3 2 2 3 4 4 3 3 4
4 1 1 1 3 3 2 1 1 2 2 1 1 2 2 1 1 1 2 2 1 1 1 1 3 2 1 1 1 1 2 2 3 3 2 2 2 2 2 2 3 3 4 4
4 2 1 1 3 3 3 2 0 1 3 3 3 2 2 2 0 2 2 2 2 1 1 2 3 3 1 1 1 1 1 3 3 2 2 2 2 2 2 2 1 2 3 5
2 2 2 4 5 3 5 4 1 2 1 1 1 2 1 2 2 2 2 1 2 1 1 2 2 2 1 1 1 1 2 3 4 2 2 2 2 2 3 3 2 3 2 2
Wind_Direction
309 58 252 242 225 218 220 228 255 251 224 174 181 183 187 182 177 178 181 180 182 186 183 177 175 170 167 166 164 166 167 173 166 159 157 154 160 162 162 173 178 177 178 175
345 276 248 246 254 251 255 274 292 289 243 180 188 204 197 189 188 186 185 185 182 175 173 176 173 172 170 173 173 170 173 175 175 176 171 163 160 168 171 172 178 181 179 180
227 247 260 266 279 272 274 237 248 265 317 7 89 344 214 210 200 187 185 183 181 180 180 180 181 181 176 180 180 179 179 178 178 171 155 148 118 111 142 173 186 190 183 183
248 259 274 286 288 264 277 262 248 258 53 294 109 247 262 217 201 191 189 185 186 188 183 184 183 184 185 184 180 176 177 177 176 170 166 168 171 179 193 184 187 193 189 184
259 258 262 267 263 262 252 266 256 251 153 357 9 134 281 200 205 204 194 188 188 191 186 187 187 188 186 181 178 177 175 179 178 175 177 178 188 189 181 175 182 191 195 193
259 263 230 236 266 269 289 350 2 33 68 352 256 159 256 217 207 198 190 187 184 186 189 187 184 179 178 177 177 177 176 183 181 179 181 185 188 183 177 182 187 195 200 202
299 294 277 265 322 325 35 65 17 356 5 259 272 149 241 235 209 188 182 183 183 184 184 180 175 176 177 176 179 180 180 185 185 185 189 192 193 188 189 189 191 191 195 206
261 290 275 247 202 219 229 140 158 209 238 277 320 223 256 258 164 158 169 172 172 172 172 175 176 176 179 181 184 184 186 188 186 189 196 198 194 195 199 197 193 196 202 207
187 260 284 262 232 168 203 215 179 155 216 293 296 292 316 15 77 101 111 124 157 170 171 172 175 177 179 184 191 190 185 189 191 192 193 197 197 198 200 200 196 197 201 204
165 251 289 296 360 323 171 173 85 110 161 263 297 283 249 265 158 125 131 142 152 162 166 170 175 179 182 187 191 190 186 190 194 194 195 197 197 200 202 197 201 198 198 200
149 176 297 338 223 241 320 61 104 127 158 164 243 270 231 200 174 153 156 151 156 159 164 162 167 176 176 176 184 191 191 191 193 194 195 197 197 201 200 203 204 200 196 191
160 141 254 269 263 225 178 178 142 155 240 173 179 259 282 178 161 141 139 130 134 150 157 159 160 159 164 170 175 185 194 195 196 195 194 199 199 199 202 208 202 195 198 198
132 113 30 332 336 354 21 18 117 142 137 164 186 262 319 63 80 108 120 112 117 120 128 135 146 163 171 173 175 181 188 192 193 190 194 199 198 200 203 206 204 199 200 201
107 110 159 203 233 263 298 306 338 94 146 219 222 242 289 320 115 119 116 115 121 121 119 124 139 162 173 173 177 184 187 185 184 190 197 201 202 204 205 204 200 199 196 197
81 125 188 223 246 268 289 294 293 263 210 209 231 224 234 206 176 161 137 119 110 105 100 103 132 150 151 172 184 176 179 182 183 187 197 206 208 202 198 201 202 198 198 203
55 120 61 324 322 341 314 303 306 301 287 203 181 262 250 192 121 120 133 135 128 131 138 132 146 152 156 176 195 191 193 195 187 190 197 199 196 192 193 199 200 196 201 202
64 119 96 281 311 3 309 281 316 351 346 155 217 239 168 65 92 143 159 152 150 145 140 153 171 173 181 189 187 198 206 199 188 191 193 192 191 190 197 201 198 201 202 198
161 132 138 173 33 239 250 260 122 82 27 53 95 87 106 113 137 169 159 155 155 155 157 170 171 182 194 188 182 192 185 181 191 195 198 200 193 191 196 198 204 210 202 193
163 152 137 135 196 261 282 304 211 129 337 5 80 60 37 92 55 3 340 164 173 176 173 182 184 181 180 181 176 154 159 161 176 191 196 192 185 184 183 190 205 211 195 189
70 117 134 148 178 232 259 289 265 108 319 313 79 116 64 50 45 283 300 9 87 116 141 155 158 125 132 197 145 135 156 160 177 185 183 176 176 180 183 190 195 203 194 192
15 34 140 180 214 248 269 293 39 117 238 276 242 154 151 183 218 227 227 48 54 81 118 137 121 116 153 116 111 124 149 187 193 160 143 144 165 173 175 182 182 184 184 169
183 178 204 166 200 248 302 43 131 211 232 245 258 153 144 177 182 137 119 127 110 69 73 97 96 70 38 91 113 123 179 208 162 145 147 157 157 163 165 170 171 165 168 162
187 191 194 193 214 235 263 151 181 161 121 6 106 190 151 141 174 151 145 153 168 117 99 96 102 79 46 53 134 157 221 191 144 134 145 155 142 144 173 175 180 176 178 175
292 284 115 310 270 274 289 72 52 99 99 40 58 67 92 117 164 165 168 178 175 117 115 110 111 104 70 39 65 167 182 164 143 143 148 142 141 139 147 160 174 179 181 176
267 334 41 271 281 327 334 336 202 76 63 50 33 41 82 92 147 197 189 187 182 177 174 139 140 141 156 163 149 157 135 127 125 132 138 137 145 150 132 117 127 173 184 184
252 202 192 235 242 225 267 278 232 97 63 37 36 5 36 156 195 202 194 198 175 164 130 118 133 160 173 133 123 139 141 137 139 136 143 146 152 150 144 135 95 57 99 140
Height
1496 1503 1508 1503 1500 1501 1501 1504 1506 1499 1489 1493 1499 1501 1499 1500 1502 1505 1507 1509 1511 1514 1517 1520 1522 1524 1526 1529 1531 1533 1535 1537 1539 1540 1541 1542 1543 1544 1545 1547 1548 1549 1550 1551
1503 1506 1496 1492 1492 1494 1497 1503 1504 1495 1488 1492 1499 1499 1496 1497 1497 1498 1501 1505 1508 1512 1515 1518 1520 1522 1523 1526 1529 1531 1533 1535 1537 1539 1541 1542 1543 1544 1545 1546 1547 1549 1550 1551
1504 1497 1489 1490 1493 1495 1497 1502 1500 1498 1491 1491 1498 1507 1502 1498 1498 1499 1500 1503 1505 1507 1509 1513 1516 1518 1521 1523 1526 1528 1531 1533 1536 1538 1540 1542 1543 1544 1545 1545 1546 1548 1549 1550
1497 1490 1489 1491 1493 1493 1501 1489 1490 1492 1503 1511 1505 1526 1509 1500 1498 1497 1498 1500 1502 1504 1507 1509 1512 1515 1517 1519 1523 1526 1529 1532 1534 1536 1538 1539 1540 1541 1542 1544 1545 1547 1548 1548
1497 1489 1490 1493 1490 1488 1490 1483 1486 1490 1500 1511 1508 1521 1515 1501 1501 1496 1494 1495 1498 1502 1504 1506 1509 1512 1515 1518 1521 1524 1527 1530 1532 1534 1536 1538 1539 1540 1542 1543 1544 1545 1546 1547
1490 1484 1485 1486 1482 1482 1483 1486 1491 1499 1510 1525 1512 1519 1519 1502 1494 1489 1489 1491 1494 1498 1501 1503 1506 1510 1514 1517 1520 1523 1525 1527 1529 1531 1533 1535 1537 1538 1540 1541 1542 1544 1544 1545
1496 1487 1482 1481 1486 1485 1488 1508 1528 1529 1537 1531 1509 1513 1511 1488 1482 1482 1484 1487 1490 1494 1498 1501 1505 1508 1511 1514 1517 1520 1522 1524 1526 1529 1531 1532 1534 1536 1537 1539 1541 1542 1543 1543
1509 1506 1486 1480 1485 1491 1492 1505 1531 1541 1541 1530 1512 1513 1499 1482 1480 1480 1482 1484 1488 1492 1495 1498 1501 1504 1508 1511 1514 1516 1518 1520 1523 1525 1527 1529 1531 1533 1535 1537 1538 1539 1540 1541
1507 1504 1482 1478 1476 1481 1492 1500 1502 1521 1524 1530 1521 1507 1492 1482 1482 1482 1483 1486 1488 1489 1492 1494 1498 1501 1504 1508 1510 1512 1514 1517 1519 1521 1523 1525 1528 1530 1532 1534 1535 1537 1538 1539
1492 1501 1488 1479 1477 1478 1483 1489 1507 1521 1534 1538 1526 1515 1509 1492 1487 1484 1485 1486 1487 1488 1490 1493 1495 1498 1501 1504 1506 1509 1512 1514 1516 1518 1520 1522 1524 1526 1529 1530 1532 1533 1534 1536
1487 1500 1496 1487 1488 1490 1488 1493 1504 1518 1522 1535 1537 1523 1489 1486 1483 1484 1484 1484 1484 1486 1488 1490 1493 1496 1498 1501 1505 1507 1509 1511 1513 1515 1517 1519 1521 1523 1525 1527 1528 1530 1531 1533
1485 1499 1507 1495 1482 1477 1481 1489 1501 1518 1520 1523 1529 1517 1481 1480 1480 1481 1482 1483 1484 1485 1486 1489 1491 1493 1496 1499 1502 1504 1505 1507 1509 1511 1513 1515 1517 1519 1521 1522 1523 1525 1528 1529
1483 1500 1515 1510 1499 1486 1485 1485 1491 1501 1513 1522 1525 1512 1482 1480 1480 1480 1481 1482 1483 1484 1485 1488 1490 1492 1494 1496 1498 1500 1502 1503 1505 1508 1509 1511 1513 1515 1516 1518 1520 1522 1524 1526
1478 1497 1509 1516 1509 1496 1492 1487 1487 1498 1514 1516 1510 1502 1489 1484 1482 1482 1482 1483 1483 1483 1484 1486 1488 1490 1492 1494 1496 1497 1499 1500 1502 1504 1505 1507 1508 1510 1512 1514 1516 1518 1520 1522
1480 1495 1494 1494 1490 1488 1488 1486 1484 1490 1496 1503 1499 1495 1488 1483 1481 1481 1481 1483 1484 1484 1485 1486 1487 1488 1490 1492 1494 1495 1496 1497 1499 1500 1501 1503 1505 1506 1508 1510 1512 1514 1516 1517
1484 1492 1492 1493 1486 1486 1488 1484 1482 1483 1484 1488 1489 1490 1482 1480 1480 1481 1481 1482 1483 1485 1485 1486 1487 1487 1488 1489 1491 1492 1493 1494 1495 1496 1497 1499 1501 1502 1504 1505 1507 1510 1511 1513
1488 1493 1501 1504 1493 1491 1498 1487 1484 1486 1483 1485 1491 1488 1482 1482 1482 1482 1481 1481 1482 1483 1483 1484 1484 1485 1485 1486 1487 1489 1490 1491 1492 1492 1494 1495 1496 1497 1499 1501 1502 1504 1506 1508
1487 1494 1503 1506 1501 1510 1497 1479 1479 1483 1484 1482 1483 1482 1481 1482 1482 1481 1481 1481 1481 1481 1482 1483 1483 1483 1483 1483 1484 1485 1487 1488 1488 1489 1490 1491 1492 1493 1495 1497 1498 1500 1501 1503
1478 1489 1501 1509 1510 1503 1489 1480 1479 1483 1488 1483 1483 1482 1482 1481 1481 1482 1483 1481 1480 1480 1481 1481 1481 1481 1481 1481 1481 1482 1483 1484 1485 1485 1486 1487 1488 1489 1490 1492 1493 1495 1497 1498
1478 1484 1497 1505 1507 1509 1493 1478 1474 1479 1492 1482 1481 1481 1482 1481 1485 1484 1481 1480 1479 1479 1479 1479 1479 1479 1479 1479 1479 1479 1480 1480 1480 1481 1482 1483 1484 1485 1486 1488 1489 1491 1492 1493
1490 1492 1497 1502 1503 1496 1483 1476 1474 1492 1492 1481 1479 1478 1478 1479 1480 1479 1478 1478 1478 1477 1476 1476 1476 1476 1476 1476 1477 1477 1477 1477 1478 1478 1479 1479 1480 1482 1483 1484 1485 1487 1488 1489
1494 1498 1499 1501 1503 1499 1479 1477 1482 1485 1480 1478 1477 1476 1476 1476 1476 1476 1475 1476 1476 1475 1475 1474 1474 1474 1474 1475 1475 1474 1474 1475 1476 1476 1476 1477 1477 1478 1479 1480 1481 1483 1484 1485
1490 1490 1492 1493 1492 1481 1477 1477 1478 1477 1477 1476 1476 1476 1475 1475 1475 1474 1473 1474 1474 1473 1472 1472 1472 1472 1472 1473 1473 1472 1472 1473 1473 1474 1474 1474 1475 1476 1477 1478 1478 1479 1481 1482
1486 1482 1485 1487 1482 1479 1477 1476 1476 1476 1475 1475 1474 1474 1474 1473 1473 1473 1472 1472 1472 1471 1471 1470 1470 1470 1469 1470 1470 1470 1470 1471 1471 1471 1471 1472 1472 1473 1475 1475 1476 1477 1478 1479
1485 1483 1484 1485 1481 1478 1476 1476 1475 1474 1473 1473 1472 1473 1473 1472 1472 1471 1471 1470 1470 1470 1469 1469 1468 1468 1468 1468 1467 1468 1468 1468 1469 1469 1470 1470 1470 1471 1472 1472 1473 1474 1475 1476
1482 1483 1485 1484 1479 1478 1476 1474 1473 1472 1471 1471 1471 1470 1471 1471 1470 1470 1470 1469 1469 1469 1468 1467 1467 1467 1466 1466 1466 1466 1466 1467 1467 1467 1468 1468 1468 1469 1469 1470 1471 1472 1473 1475